Location: Marcé
(47.5801°N, 0.3280°W)
Time: 06:23:21
(UTC+01:00)

Envisat - Pass Details

Date: 18 October 2021
Orbit: 764 x 766 km, 98.2° (Epoch: 04 December)

Event Time Altitude Azimuth Distance (km) Brightness Sun altitude
Rises 19:38:55 0° 214° (SW) 3,222 6.9 -6.0°
Reaches altitude 10° 19:42:12 10° 237° (WSW) 2,302 6.7 -6.6°
Maximum altitude 19:45:07 15° 272° (W) 1,962 6.6 -7.1°
Drops below altitude 10° 19:48:04 10° 308° (NW) 2,313 6.2 -7.6°
Sets 19:51:23 0° 331° (NNW) 3,245 6.6 -8.1°
